Perry, IA

7:58 AM CDT on July 23, 2017 (GMT -0500)
Perry Municipal

Weather History for KPRO - April, 2013

Change the Weather History Date:

Saturday, April 6, 2013

  Actual Average Record
Temperature  
Mean Temperature 56 °F -  
Max Temperature 67 °F 56 °F 85 °F (1991)
Min Temperature 44 °F 32 °F 6 °F (1982)
Degree Days  
Heating Degree Days 10    
Growing Degree Days 6 (Base 50)    
Moisture  
Dew Point 39 °F    
Average Humidity 54    
Maximum Humidity 79    
Minimum Humidity 40    
Precipitation  
Precipitation 0.00 in - - ()
Sea Level Pressure  
Sea Level Pressure 29.67 in    
Wind  
Wind Speed 14 mph (SW)    
Max Wind Speed 28 mph    
Max Gust Speed 37 mph    
Visibility 10 miles    
Events      
Averages and records for this station are not official NWS values.
T = Trace of Precipitation, MM = Missing Value Source: NWS Daily Summary

Daily Weather History Graph

Daily Weather History Graph

Search for Another Location

Airport or City:

Trip Planner

Search our weather history database for the weather conditions in past years. The results will help you decide how hot, cold, wet, or windy it might be!

Date:

Astronomy

Apr. 06, 2013 Rise Set
Actual Time 6:50 AM CDT 7:47 PM CDT
Civil Twilight 6:22 AM CDT 8:16 PM CDT
Nautical Twilight 5:48 AM CDT 8:50 PM CDT
Astronomical Twilight 5:13 AM CDT 9:25 PM CDT
Moon 4:38 AM CDT (4/6) 4:14 PM CDT (4/6)
Length of Visible Light 13h 54m
Length of Day
12h 57m
Waning Crescent, 15% of the Moon is Illuminated
Apr 6
Waning Crescent
Apr 10
New
Apr 18
First Quarter
Apr 25
Full
May 2
Last Quarter

Hourly Weather History & Observations

Time (CDT) Temp. Windchill Dew Point Humidity Pressure Visibility Wind Dir Wind Speed Gust Speed Precip Events Conditions
12:15 AM 53.4 °F - 35.1 °F 50% 29.80 in 10.0 mi SSE 12.7 mph - N/A   Clear
12:35 AM 52.9 °F - 35.6 °F 52% 29.79 in 10.0 mi SSE 12.7 mph - N/A   Clear
12:55 AM 52.2 °F - 36.0 °F 54% 29.79 in 10.0 mi SE 11.5 mph - N/A   Clear
1:15 AM 52.7 °F - 36.7 °F 55% 29.77 in 10.0 mi SE 13.8 mph - N/A   Clear
1:35 AM 53.6 °F - 37.4 °F 54% 29.76 in 10.0 mi SE 16.1 mph - N/A   Mostly Cloudy
1:55 AM 53.8 °F - 37.9 °F 55% 29.76 in 10.0 mi SSE 17.3 mph - N/A   Overcast
2:15 AM 54.3 °F - 38.3 °F 55% 29.75 in 10.0 mi SSE 13.8 mph 18.4 mph N/A   Overcast
2:35 AM 53.8 °F - 38.8 °F 57% 29.73 in 10.0 mi SSE 16.1 mph - N/A   Mostly Cloudy
2:55 AM 53.8 °F - 38.8 °F 57% 29.73 in 10.0 mi SSE 15.0 mph - N/A   Overcast
3:15 AM 53.8 °F - 38.7 °F 57% 29.73 in 10.0 mi SSE 10.4 mph - N/A   Overcast
3:35 AM 53.1 °F - 39.2 °F 59% 29.72 in 10.0 mi SSE 12.7 mph - N/A   Overcast
3:55 AM 54.0 °F - 38.7 °F 56% 29.72 in 10.0 mi SSE 9.2 mph - N/A   Mostly Cloudy
4:15 AM 54.5 °F - 38.7 °F 55% 29.71 in 10.0 mi SSE 9.2 mph - N/A   Overcast
4:35 AM 54.1 °F - 38.8 °F 56% 29.70 in 10.0 mi SSE 12.7 mph - N/A   Light Drizzle
4:55 AM 53.4 °F - 39.2 °F 59% 29.70 in 10.0 mi SSE 11.5 mph - N/A   Scattered Clouds
5:15 AM 53.1 °F - 38.8 °F 59% 29.69 in 10.0 mi SSE 11.5 mph - N/A   Scattered Clouds
5:35 AM 52.3 °F - 38.5 °F 59% 29.68 in 10.0 mi SSE 10.4 mph - N/A   Clear
5:55 AM 52.3 °F - 37.9 °F 58% 29.67 in 10.0 mi South 10.4 mph - N/A   Clear
6:15 AM 52.0 °F - 37.8 °F 58% 29.67 in 10.0 mi SSE 9.2 mph - N/A   Clear
6:35 AM 50.9 °F - 37.6 °F 60% 29.67 in 10.0 mi South 9.2 mph - N/A   Clear
6:55 AM 50.4 °F - 37.6 °F 62% 29.66 in 10.0 mi South 11.5 mph - N/A   Clear
7:15 AM 50.4 °F - 37.6 °F 62% 29.66 in 10.0 mi South 10.4 mph - N/A   Clear
7:35 AM 50.9 °F - 38.3 °F 62% 29.66 in 10.0 mi SSE 10.4 mph - N/A   Clear
7:55 AM 51.8 °F - 38.3 °F 60% 29.64 in 10.0 mi SSE 12.7 mph - N/A   Clear
8:15 AM 53.1 °F - 38.3 °F 57% 29.64 in 10.0 mi South 13.8 mph - N/A   Clear
8:35 AM 54.0 °F - 38.3 °F 55% 29.63 in 10.0 mi South 15.0 mph - N/A   Clear
8:55 AM 55.4 °F - 38.1 °F 52% 29.62 in 10.0 mi South 17.3 mph - N/A   Clear
9:15 AM 56.5 °F - 38.5 °F 51% 29.61 in 10.0 mi South 21.9 mph - N/A   Clear
9:55 AM 57.7 °F - 39.4 °F 50% 29.60 in 10.0 mi SSW 18.4 mph 26.5 mph N/A   Clear
10:15 AM 58.6 °F - 40.5 °F 51% 29.59 in 10.0 mi SSW 21.9 mph 29.9 mph N/A   Clear
10:35 AM 59.0 °F - 40.8 °F 51% 29.60 in 10.0 mi SSW 20.7 mph 27.6 mph N/A   Clear
10:55 AM 59.9 °F - 41.4 °F 50% 29.59 in 10.0 mi SSW 20.7 mph - N/A   Clear
11:15 AM 62.2 °F - 41.9 °F 47% 29.59 in 10.0 mi SW 19.6 mph 27.6 mph N/A   Clear
11:35 AM 61.9 °F - 41.7 °F 48% 29.59 in 10.0 mi SSW 20.7 mph 28.8 mph N/A   Scattered Clouds
11:55 AM 62.1 °F - 41.9 °F 48% 29.59 in 10.0 mi WSW 18.4 mph - N/A   Overcast
12:15 PM 61.0 °F - 43.7 °F 53% 29.59 in 10.0 mi SW 21.9 mph - N/A   Overcast
12:35 PM 65.8 °F - 42.6 °F 43% 29.57 in 10.0 mi SW 18.4 mph 25.3 mph N/A   Mostly Cloudy
12:55 PM 65.3 °F - 42.1 °F 43% 29.57 in 10.0 mi WSW 18.4 mph 24.2 mph N/A   Scattered Clouds
1:15 PM 66.0 °F - 42.1 °F 42% 29.57 in 10.0 mi SW 18.4 mph 26.5 mph N/A   Mostly Cloudy
1:35 PM 66.4 °F - 41.9 °F 41% 29.57 in 10.0 mi West 20.7 mph 25.3 mph N/A   Scattered Clouds
1:55 PM 67.5 °F - 42.3 °F 40% 29.58 in 10.0 mi West 25.3 mph 32.2 mph N/A   Clear
2:15 PM 64.6 °F - 42.8 °F 45% 29.57 in 10.0 mi West 18.4 mph 29.9 mph N/A   Mostly Cloudy
2:35 PM 63.1 °F - 42.8 °F 47% 29.57 in 10.0 mi West 17.3 mph - N/A   Mostly Cloudy
2:55 PM 62.2 °F - 43.5 °F 50% 29.59 in 10.0 mi WNW 26.5 mph 33.4 mph N/A   Mostly Cloudy
3:15 PM 58.8 °F - 41.9 °F 53% 29.59 in 10.0 mi WNW 25.3 mph 33.4 mph N/A   Mostly Cloudy
3:35 PM 60.6 °F - 41.0 °F 48% 29.60 in 10.0 mi WNW 24.2 mph 31.1 mph N/A   Mostly Cloudy
4:15 PM 59.9 °F - 40.1 °F 48% 29.60 in 10.0 mi WNW 18.4 mph 28.8 mph N/A   Mostly Cloudy
4:35 PM 62.8 °F - 41.0 °F 45% 29.61 in 10.0 mi WNW 18.4 mph 32.2 mph N/A   Overcast
4:55 PM 62.4 °F - 40.5 °F 44% 29.62 in 10.0 mi West 27.6 mph 36.8 mph N/A   Scattered Clouds
5:15 PM 62.2 °F - 39.4 °F 43% 29.63 in 10.0 mi WNW 23.0 mph 28.8 mph N/A   Scattered Clouds
5:35 PM 62.1 °F - 39.0 °F 43% 29.64 in 10.0 mi NW 17.3 mph 26.5 mph N/A   Scattered Clouds
5:55 PM 62.6 °F - 39.9 °F 43% 29.65 in 10.0 mi WNW 18.4 mph 25.3 mph N/A   Clear
6:15 PM 62.1 °F - 39.7 °F 44% 29.66 in 10.0 mi WNW 18.4 mph 28.8 mph N/A   Clear
6:35 PM 62.6 °F - 39.6 °F 43% 29.66 in 10.0 mi WNW 18.4 mph 26.5 mph N/A   Clear
6:55 PM 62.2 °F - 40.1 °F 44% 29.67 in 10.0 mi WNW 15.0 mph 20.7 mph N/A   Clear
7:15 PM 61.0 °F - 39.0 °F 44% 29.67 in 10.0 mi NW 12.7 mph 23.0 mph N/A   Clear
7:35 PM 59.2 °F - 38.7 °F 47% 29.69 in 10.0 mi NW 9.2 mph - N/A   Clear
7:55 PM 57.2 °F - 38.7 °F 50% 29.69 in 10.0 mi NNW 9.2 mph - N/A   Clear
8:35 PM 53.4 °F - 38.7 °F 57% 29.71 in 10.0 mi NNW 6.9 mph - N/A   Clear
8:55 PM 52.5 °F - 38.5 °F 59% 29.72 in 10.0 mi NW 4.6 mph - N/A   Clear
9:15 PM 51.1 °F - 38.5 °F 62% 29.73 in 10.0 mi NNW 3.5 mph - N/A   Clear
9:35 PM 51.1 °F - 38.7 °F 63% 29.74 in 10.0 mi North 5.8 mph - N/A   Clear
9:55 PM 50.0 °F - 39.4 °F 67% 29.75 in 10.0 mi North 9.2 mph - N/A   Clear
10:15 PM 49.8 °F - 40.5 °F 70% 29.76 in 10.0 mi North 6.9 mph - N/A   Clear
10:35 PM 48.0 °F - 39.7 °F 73% 29.77 in 10.0 mi North 6.9 mph - N/A   Clear
10:55 PM 47.1 °F - 39.4 °F 74% 29.77 in 10.0 mi North 9.2 mph - N/A   Clear
11:15 PM 45.9 °F 42.3 °F 38.8 °F 76% 29.77 in 10.0 mi North 6.9 mph - N/A   Clear
11:35 PM 44.6 °F - 38.1 °F 78% 29.79 in 10.0 mi Calm Calm - N/A   Clear
11:55 PM 44.8 °F - 38.7 °F 79% 29.80 in 10.0 mi Calm Calm - N/A   Clear